Location: Boiro
(42.6475°N, 8.8834°W)
Time: 07:44:45
(UTC+02:00)

FALCONSAT-6 - Pass Details

Date: 06 July 2022
Orbit: 555 x 585 km, 97.6° (Epoch: 10 August)

Event Time Altitude Azimuth Distance (km) Brightness Sun altitude
Exits shadow 00:21:29 29° 183° (S) 1,081 ? -17.2°
Maximum altitude 00:23:29 68° 258° (WSW) 633 ? -17.4°
Drops below altitude 10° 00:27:37 10° 342° (NNW) 1,908 ? -17.8°
Sets 00:29:48 0° 345° (NNW) 2,809 ? -18.1°
